Вернуться в каталог

STARLINK-5709

АктивенСвязьVLEO
NORAD 55621·PAYLOAD·🇺🇸 United States

Запущен Feb 12, 2023 с Cape Canaveral Space Force Station

Loading…

Ближайшие Пролёты (ближайшие 24 часа)

TLE

СвежийSource: CelesTrak SupGP

Эпоха: Sep 14, 2026, 14:50 UTC

1 55621C 23020BE  26257.61854167  .00002017  00000+0  73078-4 0  2571
2 55621  43.0020   7.0312 0001314 268.9959 185.4064 15.27569394    10

Отслеживайте STARLINK-5709 в реальном времени с AllMySat

Download on the App Store